This demonstration page uses our WeatherBlox Daily Observations layout. Learn more.

Left ArrowRight Arrow

39.08367, -84.50855

Hourly Observations for December 9, 2016

Temp ( °F °C ) Dew Point ( °F °C ) Humidity (%) Winds ( mph kmh ) Pressure ( in mb ) Visibility ( mi km ) Precip ( " mm )
12:53 am 00:53 Cloudy 24 -4.4 17 -8.3 75 75 NNW 8 13 30.50 1033 10 16 0.00 0.03
1:08 am 01:08 Cloudy 25 -4 16 -9 69 69 NNW 7 11 30.53 1034 10 16 0.00 0.00
1:27 am 01:27 Cloudy 24 -4.4 15 -9.4 68 68 NW 9 15 30.53 1034 10 16 0.00 0.00
1:53 am 01:53 Cloudy 24 -4.4 13 -10.6 62 62 WNW 12 19 30.51 1033 10 16 0.00 0.00
2:53 am 02:53 Cloudy 24 -4.4 13 -10.6 62 62 VRB 5 7 30.52 1034 10 16 0.00 0.00
3:53 am 03:53 Cloudy 24 -4.4 14 -10 65 65 W 12 19 30.53 1034 10 16 0.00 0.03
4:53 am 04:53 Cloudy 24 -4.4 13 -10.6 62 62 W 15 24 30.53 1034 10 16 0.00 0.00
5:53 am 05:53 Cloudy 24 -4.4 14 -10 65 65 WNW 10 17 30.54 1034 10 16 0.00 0.00
6:14 am 06:14 Cloudy 25 -4 14 -10 63 63 W 14 22 30.56 1035 10 16 0.00 0.00
6:53 am 06:53 Cloudy 23 -5 14 -10 68 68 W 12 19 30.55 1035 10 16 0.00 0.00
7:53 am 07:53 Cloudy 23 -5 14 -10 68 68 W 14 22 30.57 1035 10 16 0.00 0.00
8:53 am 08:53 Cloudy with Light Snow 23 -5 15 -9.4 72 72 W 10 17 30.58 1036 5 8 0.00 0.03
9:53 am 09:53 Cloudy with Light Snow 24 -4.4 14 -10 65 65 W 9 15 30.60 1036 5 8 0.00 0.03
10:53 am 10:53 Cloudy with Light Snow 25 -3.9 15 -9.4 66 66 WSW 13 20 30.61 1037 5 8 0.00 0.03
11:53 am 11:53 Cloudy with Light Snow 25 -3.9 15 -9.4 66 66 WSW 8 13 30.60 1036 5 8 0.00 0.03
12:00 pm 12:00 Cloudy 27 -3 16 -9 64 64 WSW 12 19 30.62 1037 10 16 0.00 0.00
12:12 pm 12:12 Cloudy 27 -3 16 -9 64 64 W 9 15 30.62 1037 10 16 0.00 0.00
12:24 pm 12:24 Cloudy 26 -3.3 15 -9.4 63 63 WSW 14 22 30.62 1037 10 16 0.00 0.03
12:31 pm 12:31 Cloudy 25 -3.9 15 -9.4 66 66 WSW 13 20 30.59 1036 10 16 0.00 0.03
12:53 pm 12:53 Cloudy 26 -3.3 15 -9.4 63 63 W 12 19 30.58 1036 10 16 0.00 0.03
1:53 pm 13:53 Cloudy 26 -3.3 15 -9.4 63 63 WSW 10 17 30.57 1035 10 16 0.00 0.00
2:53 pm 14:53 Cloudy 27 -2.8 15 -9.4 61 61 WSW 6 9 30.57 1035 10 16 0.00 0.00
3:53 pm 15:53 Cloudy 26 -3.3 16 -8.9 66 66 SW 8 13 30.58 1036 10 16 0.00 0.00
4:53 pm 16:53 Cloudy 26 -3.3 16 -8.9 66 66 SW 9 15 30.58 1036 10 16 0.00 0.00
5:53 pm 17:53 Cloudy 26 -3.3 16 -8.9 66 66 SW 10 17 30.58 1036 10 16 0.00 0.00
6:53 pm 18:53 Cloudy 26 -3.3 15 -9.4 63 63 SW 10 17 30.60 1036 10 16 0.00 0.00
7:53 pm 19:53 Cloudy 25 -3.9 15 -9.4 66 66 WSW 9 15 30.60 1036 10 16 0.00 0.00
8:53 pm 20:53 Cloudy 25 -3.9 15 -9.4 66 66 SW 8 13 30.60 1036 10 16 0.00 0.00
9:53 pm 21:53 Cloudy 25 -3.9 15 -9.4 66 66 SW 5 7 30.58 1035 10 16 0.00 0.00
10:53 pm 22:53 Clear 23 -5 15 -9.4 72 72 WSW 6 9 30.58 1035 10 16 0.00 0.00
11:53 pm 23:53 Clear 18 -7.8 15 -9.4 88 88 SSW 7 11 30.58 1036 10 16 0.00 0.00

Powered by AerisWeather